Location: Livorno
(43.5500°N, 10.3170°E)
Time: 20:02:21
(UTC+01:00)

Envisat - Pass Details

Date: 04 November 2020
Orbit: 764 x 766 km, 98.1° (Epoch: 05 December)

Event Time Altitude Azimuth Distance (km) Brightness Sun altitude
Rises 17:37:19 0° 174° (S) 3,218 6.4 -6.3°
Reaches altitude 10° 17:39:38 10° 177° (S) 2,297 5.6 -6.7°
Maximum altitude 17:44:39 64° 259° (WSW) 851 3.6 -7.6°
Drops below altitude 10° 17:49:43 10° 341° (NNW) 2,313 5.6 -8.5°
Sets 17:52:03 0° 344° (NNW) 3,243 6.3 -8.9°
